FW3961 Weather Reports


Display with metric or nautical units.
time (UTC)temp
F
wind
direction
speed
MPH
gust
MPH
rain 1hr
in
rain 24hr
in
rain mn
in
humidity
%
barometer
mb
20260901164335 60 136 0.0 1.0 0.00 0.01 0.01 91 1013.5
20260901163841 60 135 1.0 3.0 0.01 0.01 0.01 92 1013.6
20260901163833 60 136 1.0 3.0 0.01 0.01 0.01 92 1013.6
20260901162838 60 144 1.0 3.0 0.01 0.01 0.01 92 1013.5
20260901162332 59 145 1.0 3.0 0.01 0.01 0.01 92 1013.7
20260901161830 59 145 0.0 2.0 0.01 0.01 0.01 93 1013.6
20260901161328 59 145 0.0 2.0 0.01 0.01 0.01 93 1013.7
20260901160826 58 146 0.0 2.0 0.01 0.01 0.01 93 1013.6
20260901160324 58 146 0.0 2.0 0.01 0.01 0.01 93 1013.7
20260901155823 58 146 0.0 2.0 0.01 0.01 0.01 93 1013.7
20260901155324 58 146 0.0 2.0 0.01 0.01 0.01 93 1013.7
20260901154827 58 146 0.0 2.0 0.01 0.01 0.01 93 1013.6
20260901154823 58 146 0.0 2.0 0.01 0.01 0.01 93 1013.7
20260901153821 58 146 0.0 2.0 0.00 0.00 0.00 93 1013.5
20260901153320 58 146 0.0 2.0 0.00 0.00 0.00 92 1013.6
20260901152822 57 148 0.0 2.0 0.00 0.00 0.00 92 1013.5
20260901152313 57 147 0.0 1.0 0.00 0.00 0.00 92 1013.6
20260901151807 57 147 1.0 2.0 0.00 0.00 0.00 92 1013.6
20260901151310 57 147 0.0 3.0 0.00 0.00 0.00 91 1013.4
20260901151306 57 147 1.0 3.0 0.00 0.00 0.00 92 1013.6
20260901150306 57 148 1.0 3.0 0.00 0.00 0.00 91 1013.5
20260901145806 57 148 0.0 3.0 0.00 0.00 0.00 90 1013.5
20260901145306 58 150 0.0 1.0 0.00 0.00 0.00 90 1013.4
20260901144805 58 150 0.0 1.0 0.00 0.00 0.00 90 1013.3
20260901144319 58 151 1.0 5.0 0.00 0.00 0.00 87 1013.5
20260901144305 58 149 0.0 2.0 0.00 0.00 0.00 89 1013.3
20260901143805 58 150 1.0 3.0 0.00 0.00 0.00 89 1013.3
20260901143306 58 149 1.0 3.0 0.00 0.00 0.00 88 1013.4
20260901142305 58 151 0.0 5.0 0.00 0.00 0.00 86 1013.4
20260901141801 59 180 0.0 1.0 0.00 0.00 0.00 86 1013.3
20260901141302 59 180 0.0 2.0 0.00 0.00 0.00 86 1013.1
20260901140801 59 159 1.0 2.0 0.00 0.00 0.00 85 1013.3
20260901140302 59 159 1.0 2.0 0.00 0.00 0.00 85 1013.2
20260901135805 58 159 1.0 2.0 0.00 0.00 0.00 85 1013.2
20260901135306 58 159 1.0 4.0 0.00 0.00 0.00 85 1013.2
20260901134805 58 159 1.0 4.0 0.00 0.00 0.00 85 1013.2
20260901134306 58 159 0.0 2.0 0.00 0.00 0.00 85 1013.2
20260901133800 58 159 0.0 2.0 0.00 0.00 0.00 85 1013.1
20260901133254 58 198 0.0 0.0 0.00 0.00 0.00 85 1013.0
20260901132747 58 198 0.0 0.0 0.00 0.00 0.00 85 1013.1
20260901132241 58 198 0.0 0.0 0.00 0.00 0.00 86 1013.0
20260901131738 58 198 0.0 0.0 0.00 0.00 0.00 86 1013.0
20260901131734 58 198 0.0 0.0 0.00 0.00 0.00 86 1013.0
20260901130723 58 198 0.0 0.0 0.00 0.00 0.00 86 1013.1
20260901130218 58 198 0.0 0.0 0.00 0.00 0.00 86 1013.1
20260901125711 58 198 0.0 0.0 0.00 0.00 0.00 86 1013.0
20260901125205 58 198 0.0 1.0 0.00 0.00 0.00 86 1013.0
20260901124659 58 198 0.0 1.0 0.00 0.00 0.00 86 1013.0
20260901124154 58 199 0.0 1.0 0.00 0.00 0.00 86 1013.0
20260901123647 58 199 0.0 1.0 0.00 0.00 0.00 86 1013.0
20260901123140 58 199 0.0 1.0 0.00 0.00 0.00 86 1013.0
20260901122634 58 199 0.0 1.0 0.00 0.00 0.00 86 1013.0
20260901122128 58 199 0.0 1.0 0.00 0.00 0.00 86 1013.0
20260901121624 58 199 0.0 1.0 0.00 0.00 0.00 86 1013.1
20260901121616 58 199 0.0 1.0 0.00 0.00 0.00 86 1013.0
20260901120610 58 199 0.0 1.0 0.00 0.00 0.00 86 1013.0
20260901120104 58 199 0.0 0.0 0.00 0.00 0.00 86 1013.0
20260901115557 58 199 0.0 0.0 0.00 0.00 0.00 86 1013.0
20260901115051 58 199 0.0 0.0 0.00 0.00 0.00 86 1013.0
20260901114544 58 199 0.0 1.0 0.00 0.00 0.00 86 1012.8
20260901114040 58 199 0.0 1.0 0.00 0.00 0.00 86 1012.8
20260901113533 58 199 0.0 1.0 0.00 0.00 0.00 86 1013.0
20260901113027 58 199 0.0 1.0 0.00 0.00 0.00 87 1012.8
20260901112527 58 199 0.0 1.0 0.00 0.00 0.00 87 1012.6
20260901112523 58 199 0.0 1.0 0.00 0.00 0.00 87 1012.7
20260901111509 57 199 0.0 1.0 0.00 0.00 0.00 87 1012.6
20260901111003 57 199 0.0 1.0 0.00 0.00 0.00 87 1012.6
20260901110457 57 199 0.0 1.0 0.00 0.00 0.00 88 1012.5
20260901105951 57 199 0.0 0.0 0.00 0.00 0.00 88 1012.6
20260901105445 57 199 0.0 0.0 0.00 0.00 0.00 88 1012.6
20260901104939 57 199 0.0 1.0 0.00 0.00 0.00 88 1012.6
20260901104433 57 199 0.0 1.0 0.00 0.00 0.00 88 1012.5
20260901103929 57 199 0.0 1.0 0.00 0.00 0.00 89 1012.5
20260901103424 57 200 0.0 1.0 0.00 0.00 0.00 89 1012.4
20260901103416 56 200 0.0 1.0 0.00 0.00 0.00 89 1012.3
20260901102409 56 200 0.0 1.0 0.00 0.00 0.00 89 1012.4
20260901101902 56 134 0.0 1.0 0.00 0.00 0.00 89 1012.4
20260901101401 56 134 0.0 0.0 0.00 0.00 0.00 88 1012.4
20260901101357 56 134 0.0 1.0 0.00 0.00 0.00 89 1012.5
20260901100345 56 134 0.0 0.0 0.00 0.00 0.00 88 1012.4
20260901095838 56 134 0.0 0.0 0.00 0.00 0.00 88 1012.4
20260901095333 56 134 0.0 2.0 0.00 0.00 0.00 88 1012.4
20260901094827 56 134 0.0 2.0 0.00 0.00 0.00 88 1012.4
20260901094321 56 134 1.0 3.0 0.00 0.00 0.00 88 1012.3
20260901093815 56 134 1.0 3.0 0.00 0.00 0.00 88 1012.3
20260901093309 56 133 1.0 3.0 0.00 0.00 0.00 88 1012.3
20260901092802 56 134 1.0 3.0 0.00 0.00 0.00 88 1012.3
20260901092642 56 134 1.0 3.0 0.00 0.00 0.00 88 1012.3
20260901092533 56 134 1.0 3.0 0.00 0.00 0.00 88 1012.3
20260901091302 56 134 1.0 3.0 0.00 0.00 0.00 88 1012.2
20260901090803 56 135 1.0 3.0 0.00 0.00 0.00 88 1012.2
20260901090303 56 135 1.0 3.0 0.00 0.00 0.00 88 1012.1
20260901085804 57 136 0.0 2.0 0.00 0.00 0.00 87 1012.1
20260901085305 57 136 0.0 2.0 0.00 0.00 0.00 87 1012.1
20260901084800 57 136 0.0 2.0 0.00 0.00 0.00 87 1012.1
20260901084259 57 136 1.0 3.0 0.00 0.00 0.00 87 1012.0
20260901083800 57 136 1.0 3.0 0.00 0.00 0.00 87 1012.1
20260901083259 57 136 1.0 3.0 0.00 0.00 0.00 87 1012.2
20260901082806 57 132 2.0 5.0 0.00 0.00 0.00 87 1012.2
20260901082758 57 136 1.0 3.0 0.00 0.00 0.00 87 1012.1
20260901081804 57 134 2.0 5.0 0.00 0.00 0.00 87 1012.1
20260901081756 57 132 2.0 5.0 0.00 0.00 0.00 87 1012.2
20260901080754 57 130 2.0 5.0 0.00 0.00 0.00 87 1012.1
20260901080303 57 145 1.0 3.0 0.00 0.00 0.00 87 1012.2
20260901080259 57 131 1.0 4.0 0.00 0.00 0.00 87 1012.2
20260901075259 57 145 1.0 3.0 0.00 0.00 0.00 87 1012.2
20260901074802 57 147 0.0 4.0 0.00 0.00 0.00 86 1012.0
20260901074758 57 145 1.0 3.0 0.00 0.00 0.00 87 1012.1
20260901074255 57 146 1.0 3.0 0.00 0.00 0.00 87 1012.1
20260901073755 57 146 1.0 4.0 0.00 0.00 0.00 86 1012.1
20260901072755 57 200 0.0 1.0 0.00 0.00 0.00 86 1012.0
20260901072254 57 200 0.0 0.0 0.00 0.00 0.00 85 1012.0
20260901071755 57 206 0.0 0.0 0.00 0.00 0.00 85 1012.1
20260901071254 58 213 0.0 1.0 0.00 0.00 0.00 84 1012.0
20260901070755 58 213 0.0 2.0 0.00 0.00 0.00 84 1012.0
20260901070252 58 213 0.0 2.0 0.00 0.00 0.00 84 1011.9
20260901065752 58 213 0.0 2.0 0.00 0.00 0.00 84 1011.9
20260901065251 58 214 0.0 1.0 0.00 0.00 0.00 83 1012.0
20260901065130 59 214 0.0 1.0 0.00 0.00 0.00 83 1011.9
20260901065022 59 214 0.0 1.0 0.00 0.00 0.00 83 1011.9
20260901063746 59 214 0.0 1.0 0.00 0.00 0.00 82 1011.8
20260901063239 59 214 0.0 1.0 0.00 0.00 0.00 82 1011.8
20260901062733 59 215 0.0 2.0 0.00 0.00 0.00 82 1011.7
20260901062728 60 215 0.0 2.0 0.00 0.00 0.00 82 1011.7
20260901061721 60 213 0.0 2.0 0.00 0.00 0.00 82 1011.5
20260901061215 60 213 0.0 1.0 0.00 0.00 0.00 82 1011.5
20260901060709 60 214 0.0 2.0 0.00 0.00 0.00 82 1011.5
20260901060203 60 204 0.0 2.0 0.00 0.00 0.00 81 1011.5
20260901055656 60 186 0.0 3.0 0.00 0.00 0.00 81 1011.5
20260901055151 60 195 0.0 3.0 0.00 0.00 0.00 81 1011.6
20260901055147 61 229 1.0 3.0 0.00 0.00 0.00 80 1011.5
20260901054139 61 215 1.0 3.0 0.00 0.00 0.00 80 1011.4
20260901053632 61 254 1.0 4.0 0.00 0.00 0.00 80 1011.5
20260901053128 61 221 1.0 5.0 0.00 0.00 0.00 80 1011.3
20260901052621 61 252 1.0 5.0 0.00 0.00 0.00 79 1011.3
20260901052115 62 237 0.0 3.0 0.00 0.00 0.00 79 1011.4
20260901051609 62 228 1.0 4.0 0.00 0.00 0.00 79 1011.3
20260901051103 62 184 1.0 4.0 0.00 0.00 0.00 78 1011.2
20260901050557 62 218 0.0 4.0 0.00 0.00 0.00 78 1011.2
20260901050050 63 209 0.0 2.0 0.00 0.00 0.00 77 1011.1
20260901045545 63 209 0.0 3.0 0.00 0.00 0.00 77 1011.2
20260901045039 63 209 0.0 3.0 0.00 0.00 0.00 76 1011.0
20260901044532 64 213 0.0 1.0 0.00 0.00 0.00 75 1011.1
20260901044026 64 214 0.0 1.0 0.00 0.00 0.00 75 1011.1
20260901043521 64 214 0.0 3.0 0.00 0.00 0.00 74 1011.0
20260901043015 64 205 0.0 3.0 0.00 0.00 0.00 74 1010.7
20260901043010 65 209 0.0 2.0 0.00 0.00 0.00 73 1010.7
20260901042003 65 223 1.0 3.0 0.00 0.00 0.00 73 1010.6
20260901041457 65 223 1.0 4.0 0.00 0.00 0.00 72 1010.7
20260901040950 66 279 2.0 6.0 0.00 0.00 0.00 71 1010.5
20260901040446 67 236 2.0 6.0 0.00 0.00 0.00 70 1010.3
20260901035939 67 242 2.0 8.0 0.00 0.00 0.00 69 1010.3
20260901035433 68 251 2.0 8.0 0.00 0.00 0.00 68 1010.2
20260901034927 68 229 1.0 6.0 0.00 0.00 0.00 66 1010.0
20260901034923 69 205 1.0 5.0 0.00 0.00 0.00 65 1009.9
20260901033915 69 263 1.0 4.0 0.00 0.00 0.00 64 1009.7
20260901033409 70 289 1.0 4.0 0.00 0.00 0.00 63 1009.7
20260901032902 70 302 1.0 4.0 0.00 0.00 0.00 62 1009.6
20260901032357 71 13 1.0 3.0 0.00 0.00 0.00 61 1009.4
20260901031851 71 321 1.0 6.0 0.00 0.00 0.00 60 1009.4
20260901031345 71 277 1.0 7.0 0.00 0.00 0.00 59 1009.3
20260901030838 72 302 1.0 7.0 0.00 0.00 0.00 58 1009.3
20260901030333 73 205 1.0 4.0 0.00 0.00 0.00 58 1009.4
20260901025827 73 253 1.0 4.0 0.00 0.00 0.00 57 1009.4
20260901025823 74 298 1.0 7.0 0.00 0.00 0.00 56 1009.2
20260901024814 74 285 1.0 7.0 0.00 0.00 0.00 56 1009.1
20260901024309 75 299 1.0 4.0 0.00 0.00 0.00 55 1009.2
20260901023803 76 207 1.0 4.0 0.00 0.00 0.00 55 1009.1
20260901023256 76 346 1.0 4.0 0.00 0.00 0.00 54 1009.1
20260901022751 77 223 1.0 4.0 0.00 0.00 0.00 53 1009.0
20260901022244 77 259 1.0 4.0 0.00 0.00 0.00 52 1009.0
20260901021739 78 223 1.0 6.0 0.00 0.00 0.00 52 1009.0
20260901021232 78 244 2.0 7.0 0.00 0.00 0.00 51 1008.9
20260901020727 79 269 2.0 7.0 0.00 0.00 0.00 51 1008.8
20260901020225 80 89 2.0 6.0 0.00 0.00 0.00 50 1008.9
20260901015725 80 202 2.0 7.0 0.00 0.00 0.00 49 1008.9
20260901015222 80 232 2.0 7.0 0.00 0.00 0.00 48 1008.7
20260901014724 81 186 2.0 7.0 0.00 0.00 0.00 48 1008.6
20260901014223 81 219 1.0 7.0 0.00 0.00 0.00 46 1008.6
20260901013722 82 210 0.0 3.0 0.00 0.00 0.00 44 1008.6
20260901013222 82 215 1.0 2.0 0.00 0.00 0.00 43 1008.5
20260901012721 82 215 1.0 2.0 0.00 0.00 0.00 43 1008.6
20260901012220 83 215 0.0 1.0 0.00 0.00 0.00 42 1008.5
20260901011721 83 215 0.0 2.0 0.00 0.00 0.00 41 1008.6
20260901011220 83 215 0.0 2.0 0.00 0.00 0.00 40 1008.6
20260901010721 83 215 0.0 2.0 0.00 0.00 0.00 40 1008.6
20260901010224 84 215 0.0 2.0 0.00 0.00 0.00 39 1008.7
20260901010220 83 216 1.0 2.0 0.00 0.00 0.00 40 1008.7
20260901005220 84 216 0.0 2.0 0.00 0.00 0.00 40 1008.7
20260901004721 84 215 0.0 2.0 0.00 0.00 0.00 40 1008.7
20260901004221 84 249 0.0 2.0 0.00 0.00 0.00 40 1008.7
20260901003715 84 249 0.0 1.0 0.00 0.00 0.00 40 1008.7
20260901003214 84 249 0.0 1.0 0.00 0.00 0.00 41 1008.7
20260901002717 84 249 0.0 2.0 0.00 0.00 0.00 39 1008.7
20260901002213 84 249 0.0 2.0 0.00 0.00 0.00 40 1008.8
20260901001713 85 224 1.0 2.0 0.00 0.00 0.00 40 1008.8
20260901001213 85 224 1.0 3.0 0.00 0.00 0.00 40 1008.9
20260901000712 85 200 1.0 3.0 0.00 0.00 0.00 39 1008.9
20260901000213 86 334 1.0 4.0 0.00 0.00 0.00 39 1008.8
20260831235715 86 349 1.0 4.0 0.00 0.00 0.00 38 1008.8
20260831235212 86 234 1.0 5.0 0.00 0.00 0.00 39 1008.8
20260831234713 86 309 1.0 5.0 0.00 0.00 0.00 39 1008.8
20260831234213 86 335 1.0 3.0 0.00 0.00 0.00 39 1008.8
20260831233716 86 335 1.0 3.0 0.00 0.00 0.00 39 1008.8
20260831233212 85 286 1.0 3.0 0.00 0.00 0.00 40 1008.8
20260831232712 85 275 1.0 3.0 0.00 0.00 0.00 40 1009.0
20260831232217 85 201 1.0 5.0 0.00 0.00 0.00 41 1009.0
20260831232213 85 260 1.0 3.0 0.00 0.00 0.00 40 1009.0
20260831231212 85 205 1.0 5.0 0.00 0.00 0.00 42 1009.0
20260831231055 85 313 1.0 3.0 0.00 0.00 0.00 43 1009.1
20260831230946 85 288 1.0 4.0 0.00 0.00 0.00 43 1009.1
20260831225704 85 313 1.0 4.0 0.00 0.00 0.00 44 1009.2
20260831225158 85 233 1.0 4.0 0.00 0.00 0.00 42 1009.4
20260831224652 84 333 1.0 4.0 0.00 0.00 0.00 46 1009.3
20260831224147 85 28 2.0 4.0 0.00 0.00 0.00 43 1009.3
20260831223640 85 325 2.0 4.0 0.00 0.00 0.00 44 1009.2
20260831223135 85 256 1.0 4.0 0.00 0.00 0.00 44 1009.3
20260831222631 84 192 0.0 3.0 0.00 0.00 0.00 45 1009.2
20260831222122 84 193 1.0 3.0 0.00 0.00 0.00 45 1009.3
20260831221616 83 198 1.0 3.0 0.00 0.00 0.00 44 1009.4
20260831221110 83 192 1.0 5.0 0.00 0.00 0.00 48 1009.4
20260831220604 83 211 1.0 5.0 0.00 0.00 0.00 44 1009.5
20260831220058 83 10 1.0 4.0 0.00 0.00 0.00 45 1009.5
20260831215552 83 294 1.0 4.0 0.00 0.00 0.00 44 1009.7
20260831215045 82 211 1.0 3.0 0.00 0.00 0.00 46 1009.8
20260831214539 82 332 1.0 4.0 0.00 0.00 0.00 45 1009.8
20260831214034 82 321 1.0 4.0 0.00 0.00 0.00 46 1010.0
20260831213528 82 42 1.0 3.0 0.00 0.00 0.00 45 1010.0
20260831213022 82 309 1.0 4.0 0.00 0.00 0.00 46 1010.0
20260831212515 81 269 1.0 4.0 0.00 0.00 0.00 46 1010.1
20260831212010 81 28 2.0 5.0 0.00 0.00 0.00 47 1010.1
20260831211508 81 44 1.0 4.0 0.00 0.00 0.00 46 1010.0
20260831211503 81 295 2.0 5.0 0.00 0.00 0.00 46 1010.1
20260831210452 81 167 1.0 4.0 0.00 0.00 0.00 47 1010.1
20260831205947 80 159 1.0 4.0 0.00 0.00 0.00 48 1010.2
20260831205444 79 25 1.0 4.0 0.00 0.00 0.00 49 1010.4
20260831205440 79 30 1.0 3.0 0.00 0.00 0.00 49 1010.4
20260831204428 78 9 1.0 4.0 0.00 0.00 0.00 50 1010.4
20260831203921 78 26 1.0 3.0 0.00 0.00 0.00 52 1010.5
20260831203415 78 26 1.0 3.0 0.00 0.00 0.00 51 1010.5
20260831202911 77 331 1.0 3.0 0.00 0.00 0.00 52 1010.6
20260831202410 77 275 1.0 3.0 0.00 0.00 0.00 51 1010.6
20260831202406 77 275 1.0 3.0 0.00 0.00 0.00 53 1010.6
20260831201352 76 323 1.0 4.0 0.00 0.00 0.00 53 1010.6
20260831200846 76 350 1.0 4.0 0.00 0.00 0.00 52 1010.7
20260831200343 76 259 1.0 4.0 0.00 0.00 0.00 54 1010.8
20260831200335 76 15 1.0 4.0 0.00 0.00 0.00 54 1010.7
20260831195328 75 306 1.0 5.0 0.00 0.00 0.00 54 1010.8
20260831194823 75 22 1.0 6.0 0.00 0.00 0.00 54 1011.0
20260831194317 75 19 1.0 3.0 0.00 0.00 0.00 55 1010.9
20260831193809 74 0 1.0 3.0 0.00 0.00 0.00 56 1011.1
20260831193304 74 190 1.0 3.0 0.00 0.00 0.00 57 1011.1
20260831192801 73 253 1.0 3.0 0.00 0.00 0.00 58 1011.1
20260831192753 73 218 1.0 3.0 0.00 0.00 0.00 57 1011.2
20260831192125 72 192 1.0 4.0 0.00 0.00 0.00 60 1011.4
20260831192017 73 301 1.0 3.0 0.00 0.00 0.00 58 1011.3
20260831190734 72 228 1.0 4.0 0.00 0.00 0.00 60 1011.4
20260831190235 71 286 1.0 4.0 0.00 0.00 0.00 60 1011.5
20260831185717 71 0 1.0 4.0 0.00 0.00 0.00 62 1011.5
20260831185204 71 198 2.0 5.0 0.00 0.00 0.00 63 1011.5
20260831184657 70 296 2.0 5.0 0.00 0.00 0.00 63 1011.5
20260831184152 70 315 2.0 5.0 0.00 0.00 0.00 64 1011.6
20260831183646 70 237 2.0 4.0 0.00 0.00 0.00 64 1011.6
20260831183139 69 194 2.0 4.0 0.00 0.00 0.00 64 1011.6
20260831183135 69 0 2.0 5.0 0.00 0.00 0.00 65 1011.8
20260831182134 69 198 2.0 5.0 0.00 0.00 0.00 66 1011.7
20260831181640 68 281 1.0 3.0 0.00 0.00 0.00 68 1011.7
20260831181633 68 166 2.0 5.0 0.00 0.00 0.00 67 1011.8
20260831180634 67 195 1.0 3.0 0.00 0.00 0.00 68 1011.8
20260831180134 67 252 1.0 4.0 0.00 0.00 0.00 69 1012.0
20260831175635 67 287 2.0 4.0 0.00 0.00 0.00 70 1012.0
20260831175132 66 5 2.0 4.0 0.00 0.00 0.00 69 1011.9
20260831174632 66 336 1.0 4.0 0.00 0.00 0.00 70 1011.9
20260831174132 66 291 1.0 4.0 0.00 0.00 0.00 70 1012.0
20260831173631 66 355 1.0 3.0 0.00 0.00 0.00 71 1012.0
20260831173133 65 31 1.0 4.0 0.00 0.00 0.00 71 1012.1
20260831172631 65 232 1.0 4.0 0.00 0.00 0.00 72 1012.1
20260831172135 64 197 1.0 4.0 0.00 0.00 0.00 74 1012.2
20260831172130 64 281 1.0 4.0 0.00 0.00 0.00 73 1012.2
20260831171129 64 350 1.0 3.0 0.00 0.00 0.00 74 1012.2
20260831171125 63 355 1.0 3.0 0.00 0.00 0.00 75 1012.2
20260831170123 63 94 1.0 5.0 0.00 0.00 0.00 76 1012.2
20260831165626 62 312 1.0 8.0 0.00 0.00 0.00 76 1012.2
20260831165123 62 304 2.0 8.0 0.00 0.00 0.00 77 1012.3